Hourly Weather Rumian

Today, 16 April, Friday

Time Temperature Precipitation Wind Pressure Humidity
00:00 +3°C° 0.2 mm 4 mps 748 mmHg 96%
01:00 +1°C° 0 mm 4 mps 748 mmHg 96%
02:00 +1°C° 0.3 mm 4 mps 748 mmHg 96%
03:00 +1°C° 0.3 mm 4 mps 748 mmHg 96%
04:00 +1°C° 0.3 mm 5 mps 748 mmHg 96%
05:00 +1°C° 0.1 mm 5 mps 748 mmHg 96%
06:00 +1°C° 0.1 mm 5 mps 748 mmHg 96%
07:00 +1°C° 0.1 mm 5 mps 748 mmHg 95%
08:00 +2°C° 0.1 mm 5 mps 748 mmHg 95%
09:00 +2°C° 0.1 mm 5 mps 748 mmHg 94%
10:00 +2°C° 0.1 mm 5 mps 748 mmHg 94%
11:00 +2°C° 0.3 mm 5 mps 747 mmHg 93%
12:00 +3°C° 0.3 mm 5 mps 747 mmHg 93%
13:00 +3°C° 0.3 mm 5 mps 747 mmHg 92%
14:00 +3°C° 0.9 mm 5 mps 747 mmHg 93%
15:00 +3°C° 0.9 mm 4 mps 747 mmHg 94%
16:00 +3°C° 0.9 mm 4 mps 747 mmHg 96%
17:00 +3°C° 0 mm 4 mps 747 mmHg 96%
18:00 +3°C° 0 mm 4 mps 748 mmHg 96%
19:00 +3°C° 0 mm 3 mps 748 mmHg 97%
20:00 +4°C° 0 mm 3 mps 748 mmHg 97%
21:00 +4°C° 0 mm 3 mps 748 mmHg 97%
22:00 +4°C° 0 mm 3 mps 748 mmHg 97%
23:00 +4°C° 0 mm 3 mps 748 mmHg 97%

Tomorrow, 17 April, Saturday

Time Temperature Precipitation Wind Pressure Humidity
00:00 +5°C° 0 mm 3 mps 748 mmHg 97%
01:00 +5°C° 0 mm 3 mps 748 mmHg 97%
02:00 +5°C° 0 mm 3 mps 748 mmHg 97%
03:00 +5°C° 0 mm 3 mps 748 mmHg 97%
04:00 +5°C° 0 mm 3 mps 748 mmHg 97%
05:00 +5°C° 0.1 mm 3 mps 748 mmHg 96%
06:00 +7°C° 0.1 mm 3 mps 748 mmHg 96%
07:00 +7°C° 0.1 mm 3 mps 748 mmHg 95%
08:00 +8°C° 0.2 mm 3 mps 748 mmHg 92%
09:00 +9°C° 0.2 mm 3 mps 749 mmHg 89%
10:00 +9°C° 0.2 mm 3 mps 749 mmHg 86%
11:00 +10°C° 0.1 mm 3 mps 749 mmHg 82%
12:00 +10°C° 0.1 mm 3 mps 749 mmHg 79%
13:00 +11°C° 0.1 mm 3 mps 749 mmHg 75%
14:00 +11°C° 0.2 mm 4 mps 749 mmHg 74%
15:00 +12°C° 0.2 mm 4 mps 749 mmHg 72%
16:00 +12°C° 0.2 mm 4 mps 749 mmHg 70%
17:00 +11°C° 0.1 mm 4 mps 749 mmHg 75%
18:00 +9°C° 0.1 mm 3 mps 749 mmHg 81%
19:00 +8°C° 0.1 mm 3 mps 749 mmHg 86%
20:00 +8°C° 0 mm 3 mps 749 mmHg 88%
21:00 +7°C° 0 mm 3 mps 750 mmHg 90%
22:00 +6°C° 0 mm 2 mps 750 mmHg 92%
23:00 +6°C° 0 mm 2 mps 750 mmHg 92%

Day after tomorrow, 18 April, Sunday

Time Temperature Precipitation Wind Pressure Humidity
00:00 +6°C° 0 mm 2 mps 750 mmHg 93%
01:00 +6°C° 0 mm 2 mps 750 mmHg 93%
02:00 +6°C° 0 mm 2 mps 750 mmHg 93%
03:00 +6°C° 0 mm 2 mps 750 mmHg 94%
04:00 +5°C° 0 mm 2 mps 749 mmHg 94%
05:00 +6°C° 0 mm 2 mps 750 mmHg 91%
06:00 +7°C° 0 mm 2 mps 750 mmHg 89%
07:00 +8°C° 0 mm 2 mps 750 mmHg 86%
08:00 +9°C° 0.1 mm 3 mps 750 mmHg 83%
09:00 +10°C° 0.1 mm 3 mps 750 mmHg 79%
10:00 +11°C° 0.1 mm 4 mps 750 mmHg 76%
11:00 +11°C° 0.3 mm 4 mps 750 mmHg 77%
12:00 +11°C° 0.3 mm 3 mps 750 mmHg 78%
13:00 +11°C° 0.3 mm 3 mps 750 mmHg 80%
14:00 +11°C° 0.1 mm 3 mps 750 mmHg 77%
15:00 +12°C° 0.1 mm 3 mps 749 mmHg 74%
16:00 +13°C° 0.1 mm 3 mps 749 mmHg 71%
17:00 +13°C° 0.4 mm 2 mps 749 mmHg 77%
18:00 +12°C° 0.4 mm 2 mps 749 mmHg 82%
19:00 +10°C° 0.4 mm 2 mps 749 mmHg 87%
20:00 +9°C° 0 mm 2 mps 749 mmHg 88%
21:00 +9°C° 0 mm 2 mps 749 mmHg 88%
22:00 +9°C° 0 mm 2 mps 749 mmHg 88%
23:00 +9°C° 0 mm 2 mps 749 mmHg 89%

19 April, Monday

Time Temperature Precipitation Wind Pressure Humidity
00:00 +9°C° 0 mm 3 mps 749 mmHg 90%
01:00 +9°C° 0 mm 3 mps 750 mmHg 91%
02:00 +8°C° 0 mm 3 mps 750 mmHg 92%
03:00 +7°C° 0 mm 3 mps 750 mmHg 93%
04:00 +5°C° 0 mm 3 mps 750 mmHg 93%
05:00 +7°C° 0 mm 3 mps 750 mmHg 88%
06:00 +7°C° 0 mm 4 mps 750 mmHg 82%
07:00 +7°C° 0 mm 4 mps 750 mmHg 77%
08:00 +9°C° 0 mm 5 mps 750 mmHg 70%
09:00 +10°C° 0 mm 5 mps 749 mmHg 63%
10:00 +11°C° 0 mm 6 mps 749 mmHg 56%
11:00 +12°C° 0 mm 5 mps 749 mmHg 57%
12:00 +12°C° 0 mm 5 mps 749 mmHg 59%
13:00 +12°C° 0 mm 5 mps 749 mmHg 60%
14:00 +10°C° 0 mm 5 mps 748 mmHg 62%
15:00 +11°C° 0 mm 4 mps 748 mmHg 64%
16:00 +11°C° 0 mm 4 mps 748 mmHg 66%
17:00 +10°C° 0 mm 3 mps 748 mmHg 68%
18:00 +9°C° 0 mm 3 mps 748 mmHg 71%
19:00 +9°C° 0 mm 3 mps 748 mmHg 73%
20:00 +8°C° 0 mm 2 mps 748 mmHg 76%
21:00 +8°C° 0 mm 2 mps 748 mmHg 79%
22:00 +7°C° 0 mm 2 mps 747 mmHg 81%
23:00 +7°C° 0 mm 2 mps 747 mmHg 84%

20 April, Tuesday

Time Temperature Precipitation Wind Pressure Humidity
00:00 +6°C° 0 mm 2 mps 747 mmHg 86%
01:00 +5°C° 0 mm 2 mps 747 mmHg 88%
02:00 +5°C° 0 mm 2 mps 747 mmHg 86%
03:00 +6°C° 0 mm 2 mps 746 mmHg 84%
04:00 +6°C° 0 mm 2 mps 746 mmHg 81%
05:00 +6°C° 0 mm 2 mps 746 mmHg 81%
06:00 +6°C° 0 mm 2 mps 746 mmHg 80%
07:00 +5°C° 0 mm 3 mps 746 mmHg 80%
08:00 +8°C° 0 mm 3 mps 745 mmHg 74%
09:00 +9°C° 0 mm 3 mps 745 mmHg 68%
10:00 +10°C° 0 mm 3 mps 745 mmHg 62%
11:00 +10°C° 0.2 mm 3 mps 745 mmHg 62%
12:00 +10°C° 0.2 mm 3 mps 744 mmHg 62%
13:00 +11°C° 0.2 mm 3 mps 744 mmHg 62%
14:00 +10°C° 0.2 mm 4 mps 744 mmHg 64%
15:00 +10°C° 0.2 mm 4 mps 743 mmHg 65%
16:00 +10°C° 0.2 mm 4 mps 743 mmHg 66%
17:00 +8°C° 0.1 mm 4 mps 743 mmHg 71%
18:00 +8°C° 0.1 mm 3 mps 743 mmHg 77%
19:00 +7°C° 0.1 mm 3 mps 743 mmHg 83%
20:00 +5°C° 0 mm 3 mps 743 mmHg 86%
21:00 +4°C° 0 mm 3 mps 743 mmHg 90%
22:00 +4°C° 0 mm 2 mps 743 mmHg 93%
23:00 +4°C° 0 mm 2 mps 743 mmHg 93%

21 April, Wednesday

Time Temperature Precipitation Wind Pressure Humidity
00:00 +4°C° 0 mm 2 mps 743 mmHg 93%
01:00 +3°C° 0 mm 2 mps 743 mmHg 93%
02:00 +3°C° 0 mm 2 mps 743 mmHg 93%
03:00 +3°C° 0 mm 2 mps 742 mmHg 93%
04:00 +2°C° 0 mm 3 mps 742 mmHg 92%
05:00 +3°C° 0 mm 3 mps 742 mmHg 89%
06:00 +4°C° 0 mm 3 mps 742 mmHg 86%
07:00 +5°C° 0 mm 3 mps 742 mmHg 83%
08:00 +7°C° 0.1 mm 3 mps 742 mmHg 77%
09:00 +8°C° 0.1 mm 3 mps 742 mmHg 71%
10:00 +8°C° 0.1 mm 4 mps 742 mmHg 65%
11:00 +10°C° 0.1 mm 4 mps 742 mmHg 63%
12:00 +10°C° 0.1 mm 4 mps 742 mmHg 60%
13:00 +10°C° 0.1 mm 4 mps 742 mmHg 58%
14:00 +11°C° 0.1 mm 3 mps 742 mmHg 59%
15:00 +11°C° 0.1 mm 3 mps 742 mmHg 59%
16:00 +11°C° 0.1 mm 3 mps 742 mmHg 59%
17:00 +9°C° 0.1 mm 3 mps 742 mmHg 66%
18:00 +8°C° 0.1 mm 2 mps 742 mmHg 73%
19:00 +6°C° 0.1 mm 2 mps 742 mmHg 79%
20:00 +6°C° 0 mm 2 mps 743 mmHg 81%
21:00 +5°C° 0 mm 2 mps 743 mmHg 82%
22:00 +5°C° 0 mm 2 mps 743 mmHg 83%
23:00 +5°C° 0 mm 2 mps 743 mmHg 84%
Show more